Location: Karaa?a�
(36.7158°N, 30.4165°E)
Time: 09:02:59
(UTC+00:00)

USA 186 - Pass Details

Date: 09 April 2020
Orbit: 263 x 445 km, 96.9° (Epoch: 31 May)

Event Time Altitude Azimuth Distance (km) Brightness Sun altitude
Exits shadow 16:33:10 - 121° (ESE) 2,342 4.9 -1.9°
Reaches altitude 10° 16:36:29 10° 83° (E) 1,518 4.0 -2.5°
Drops below altitude 10° 16:37:54 10° 57° (ENE) 1,503 4.1 -2.8°
Enters shadow 17:38:04 -57° 171° (S) 11,097 8.9 -14.3°
Maximum altitude 18:07:51 32° 262° (W) 765 3.5 -19.8°
